Location: Newark
(41.0400°S, 62.7845°W)
Time: 08:08:13
(UTC+00:00)

Transit 2A - Pass Details

Date: 02 December 2021
Orbit: 591 x 967 km, 66.7° (Epoch: 19 January)

Event Time Altitude Azimuth Distance (km) Brightness Sun altitude
Rises 17:21:55 0° 305° (NW) 3,202 9.6 64.5°
Reaches altitude 10° 17:24:38 10° 294° (WNW) 2,219 9.0 64.1°
Maximum altitude 17:29:03 30° 233° (SW) 1,208 7.6 63.4°
Drops below altitude 10° 17:33:10 10° 170° (S) 2,059 8.2 62.8°
Sets 17:35:37 0° 159° (SSE) 2,934 8.8 62.4°
